Regional Weather Roundup
Issued by NWS

Home | Current Version | Previous Version | Graphics & Text | Print | Product List | Glossary On
Versions: 1 2 3 4 5 6 7 8 9 10 11 12 13 14 15 16 17 18 19 20 21 22 23 24 25 26 27 28 29 30 31 32 33 34 35 36 37 38 39 40 41 42 43 44 45 46 47 48 49 50
000
ASUS43 KDTX 191810
RWRMI
MICHIGAN HOURLY REGIONAL WEATHER ROUNDUP
NATIONAL WEATHER SERVICE DETROIT/PONTIAC MI
200 PM EDT SUN APR 19 2015

NOTE: "FAIR" INDICATES FEW OR NO CLOUDS BELOW 12,000 FEET WITH NO
SIGNIFICANT WEATHER AND/OR OBSTRUCTION TO VISIBILITY.

MIZ047>049-052>055-059>063-066>070-074>076-081>083-191900-
SOUTHEAST LOWER MICHIGAN

CITY           SKY/WX    TMP DP  RH WIND       PRES   REMARKS
ADRIAN         CLOUDY    55  39  54 E15       29.82F
6HR MIN TEMP:  45; 6HR MAX TEMP:  63; 6HR PCP: TRACE;

ALMA           SUNNY     64  31  29 NE15G23   29.84F
ANN ARBOR      MOSUNNY   61  35  37 E14G22    29.83F
BAD AXE        MOSUNNY   55  29  37 E14G26    29.94F
DETROIT CITY   LGT RAIN  48  40  73 E14G23    29.90F
6HR MIN TEMP:  47; 6HR MAX TEMP:  57; 6HR PCP: TRACE;

DETROIT        PTSUNNY   56  36  47 E14G24    29.87F
6HR MIN TEMP:  47; 6HR MAX TEMP:  63;

FLINT          SUNNY     67  35  30 E17G23    29.84F
6HR MIN TEMP:  44; 6HR MAX TEMP:  68;

GROSSE ILE     MOSUNNY   52  43  71 NE15G21   29.85F
HILLSDALE      CLOUDY    62  35  36 E20G25    29.78F
6HR MIN TEMP:  48; 6HR MAX TEMP:  65;

HOWELL         MOSUNNY   62  32  31 E15G23    29.83F
6HR MIN TEMP:  46; 6HR MAX TEMP:  64;


CITY           SKY/WX    TMP DP  RH WIND       PRES   REMARKS
JACKSON        MOSUNNY   65  37  35 SE17      29.79F
6HR MIN TEMP:  47; 6HR MAX TEMP:  66;

LAMBERTVILLE   PTSUNNY   54  39  58 E15G22    29.82F
LANSING        MOSUNNY   66  33  29 E14G23    29.82F
6HR MIN TEMP:  46; 6HR MAX TEMP:  66;

LAPEER         NOT AVBL
MASON          MOSUNNY   65  33  29 E15G21    29.80F
MONROE         MOSUNNY   57  39  51 E17G25    29.82F
MT. CLEMENS    LGT RAIN  55  39  54 SE15      29.88F
6HR MIN TEMP:  45; 6HR MAX TEMP:  60; 6HR PCP: TRACE;

PONTIAC        PTSUNNY   61  33  35 E17G30    29.86F
6HR MIN TEMP:  44; 6HR MAX TEMP:  61;

PORT HOPE        N/A     44  35  70 E10       29.96F
6HR MIN TEMP:  40; 6HR MAX TEMP:  45;

PORT HURON     MOSUNNY   63  37  39 E13       29.91F
TRI CITIES     SUNNY     64  33  31 E17G24    29.88F
6HR MIN TEMP:  43; 6HR MAX TEMP:  64;

YPSILANTI      PTSUNNY   63  34  33 E20       29.84F
6HR MIN TEMP:  50; 6HR MAX TEMP:  67;

$$
MIZ043>046-050>051-056>058-064>065-071>073-077>080-191900-
SOUTHWEST LOWER MICHIGAN

CITY           SKY/WX    TMP DP  RH WIND       PRES   REMARKS
BATTLE CREEK   PTSUNNY   70  33  25 E13G26    29.75F
6HR MIN TEMP:  50; 6HR MAX TEMP:  70;

BENTON HARBOR  PTSUNNY   70  38  31 E16G22    29.69F
6HR MIN TEMP:  51; 6HR MAX TEMP:  72;

BIG RAPIDS     MOSUNNY   63  23  22 E18G24    29.82F
6HR MIN TEMP:  44; 6HR MAX TEMP:  63;

COLDWATER      PTSUNNY   64  36  35 E16G22    29.76F
6HR MIN TEMP:  49; 6HR MAX TEMP:  66;

HOLLAND        MOSUNNY   69  35  28 E20       29.75F
6HR MIN TEMP:  49; 6HR MAX TEMP:  71;

GRAND RAPIDS   PTSUNNY   66  32  28 E17       29.79F
6HR MIN TEMP:  44; 6HR MAX TEMP:  66;

KALAMAZOO      PTSUNNY   72  33  24 E10G20    29.74F
6HR MIN TEMP:  51; 6HR MAX TEMP:  74;

MARSHALL       MOSUNNY   67  34  29 E13G18    29.76F
MUSKEGON       MOSUNNY   69  30  23 E16G25    29.75F
6HR MIN TEMP:  49; 6HR MAX TEMP:  69;

$$
MIZ016>042-191900-
NORTHERN LOWER MICHIGAN

CITY           SKY/WX    TMP DP  RH WIND       PRES   REMARKS
ALPENA         SUNNY     48  30  49 SE20G29   30.02F
6HR MIN TEMP:  39; 6HR MAX TEMP:  49;

BEAVER ISLAND  PTSUNNY   46  32  59 E14G25    29.89F
6HR MIN TEMP:  39; 6HR MAX TEMP:  50;

BELLAIRE       MOSUNNY   65  21  18 SE14G26   29.86F
6HR MIN TEMP:  46; 6HR MAX TEMP:  65;

CADILLAC       MOSUNNY   62  24  23 E20G26    29.84F
CHARLEVOIX     MOSUNNY   59  28  29 E21       29.89F
6HR MIN TEMP:  42; 6HR MAX TEMP:  61;

FRANKFORT      MOCLDY    68  13  12 SE15G23   29.79F
GAYLORD        SUNNY     60  24  25 SE12G22   29.90F
6HR MIN TEMP:  38; 6HR MAX TEMP:  60;

GRAYLING       SUNNY     61  19  19 SE15G22   29.90F
6HR MIN TEMP:  36; 6HR MAX TEMP:  61;

HARBOR SPRINGS SUNNY     60  28  29 E13G23    29.90F
HOUGHTON LAKE  MOSUNNY   60  21  22 E21G29    29.89F
6HR MIN TEMP:  41; 6HR MAX TEMP:  60;

MANISTEE       PTSUNNY   66  25  20 SE17      29.79F
OSCODA         MOSUNNY   47  33  56 E13G18    30.00F
PELLSTON       SUNNY     59  28  30 SE16G29   29.92F
6HR MIN TEMP:  39; 6HR MAX TEMP:  59;

TRAVERSE CITY  PTSUNNY   64  26  23 SE10G24   29.83F
6HR MIN TEMP:  45; 6HR MAX TEMP:  64;

$$
MIZ007>008-015-191900-
EASTERN UPPER MICHIGAN

CITY           SKY/WX    TMP DP  RH WIND       PRES   REMARKS
KINROSS        SUNNY     48  28  46 E21G30    29.98F
6HR MIN TEMP:  36; 6HR MAX TEMP:  48;

MACKINAC ISLAN SUNNY     39  31  75 E24G35    29.97F
6HR MIN TEMP:  36; 6HR MAX TEMP:  39;

NEWBERRY       PTSUNNY   50  31  47 SE23G29   29.92F
S. S. MARIE    MOSUNNY   47  29  49 SE14G26   29.99F
6HR MIN TEMP:  37; 6HR MAX TEMP:  47;

$$
MIZ004>006-011>014-085-191900-
CENTRAL UPPER MICHIGAN

CITY           SKY/WX    TMP DP  RH WIND       PRES   REMARKS
MANISTIQUE     CLOUDY    47  33  57 E18G24    29.90F
ESCANABA       CLOUDY    46  28  49 E13       29.86F
6HR MIN TEMP:  41; 6HR MAX TEMP:  46;

MENOMINEE      PTSUNNY   45  32  61 NE13      29.82F
6HR MIN TEMP:  43; 6HR MAX TEMP:  46; 6HR PCP:  0.01;

SAWYER-GWINN   CLOUDY    48  27  43 S18G26    29.83F
$$
MIZ001>003-009>011-084-191900-
WESTERN UPPER MICHIGAN

CITY           SKY/WX    TMP DP  RH WIND       PRES   REMARKS
IRON MOUNTAIN  PTSUNNY   50  29  44 SE14G24   29.80F
6HR MIN TEMP:  40; 6HR MAX TEMP:  51; 6HR PCP:  0.01;

HOUGHTON       CLOUDY    43  34  70 E14       29.74F
6HR MIN TEMP:  35; 6HR MAX TEMP:  43; 6HR PCP:  0.10;

COPPER HARBOR    N/A     40  32  73 S15G25    29.78F
6HR MIN TEMP:  39; 6HR MAX TEMP:  42; 6HR PCP:  0.02;

IRONWOOD       CLOUDY    54  37  54 S9G23     29.64F
6HR MIN TEMP:  43; 6HR MAX TEMP:  54;

$$

ABBREVIATIONS USED IN REMARKS
   TC - TEMPERATURE IN CELSIUS
  WCI - WIND CHILL INDEX
   HX - HEAT INDEX
  VSB - VISIBILITY




USA.gov is the U.S. government's official web portal to all federal, state and local government web resources and services.